Location: Home
(42.5358°N, 72.7383°W)
Time: 11:50:05
(UTC-04:00)

Courier 1B - Visible Passes

Search period start: 27 May 2022 00:00
Search period end: 06 June 2022 00:00
Orbit: 962 x 1209 km, 28.3° (Epoch: 26 May)

Date Brightness Start Highest point End Pass type
(mag) Time Alt. Az. Time Alt. Az. Time Alt. Az.
27 May 8.9 21:14:48 10° WSW 21:20:29 25° S 21:25:01 13° SE visible
27 May 9.4 23:09:33 10° SW 23:11:54 15° SW 23:11:54 15° SW visible
28 May 9.0 22:15:10 10° WSW 22:19:59 19° SSW 22:21:20 18° S visible
29 May 9.0 21:21:00 10° WSW 21:26:25 22° SSW 21:30:46 13° SSE visible
30 May 9.3 22:22:15 10° SW 22:25:48 14° SSW 22:27:03 14° SSW visible
31 May 9.3 21:27:37 10° WSW 21:32:16 18° SSW 21:36:27 11° SSE visible
02 Jun 9.6 21:35:11 10° SW 21:38:03 12° SSW 21:40:51 10° S visible
